Flag for India Weather past 2 weeks in Navi Mumbai, Maharashtra, India

88 °F

Passing clouds.

Feels Like: 94 °F
Forecast: 78 / 95 °F
Wind: 3 mph from North

Location: Mumbai / Santacruz

Current Time: Nov 26, 2015 at 8:41:01 PM

Latest Report: Nov 26, 2015 at 8:00 PM

Visibility: 2 mi

Pressure: 29.86 "Hg

Humidity: 59%

Dew point: 72 °F

Location of Navi MumbaiLocation

Historic Weather in Navi Mumbai — Graph


Navi Mumbai temperature yesterday

Maximum temperature yesterday: 91 °F (at 11:00 AM)
Minimum temperature yesterday: 82 °F (at 1:30 AM)
Average temperature yesterday: 86 °F

Past Weeks' High & Low Weather Summary

High99 °F (Nov 20, 3:00 PM)84% (Nov 22, 10:00 PM)29.98 "Hg (Nov 22, 10:00 PM)
Low75 °F (Nov 18, 6:30 AM)19% (Nov 19, 3:30 PM)29.74 "Hg (Nov 15, 3:30 PM)
Average86 °F51%29.85 "Hg
* Reported Nov 11 7:40 PM — Nov 26 7:30 PM, Navi Mumbai, Weather by CustomWeather, © 2015

Note: Actual official high and low records may vary slightly from our data, if they occured in-between our weather recording intervals... More about our weather records


Navi Mumbai weather history for previous 24 hours

Time TempWeatherWind HumidityBarometerVisibility
7:30 PM
Thu, Nov 26
88 °FPassing clouds.5 mph62%29.86 "Hg1 mi
7:00 PM88 °FPassing clouds.5 mph59%29.86 "Hg1 mi
6:30 PM88 °FPassing clouds.6 mph59%29.83 "Hg1 mi
6:00 PM90 °FPartly sunny.5 mph55%29.83 "Hg1 mi
5:30 PM88 °FScattered clouds.9 mph59%29.83 "Hg2 mi
5:00 PM91 °FPassing clouds.9 mph52%29.83 "Hg2 mi
4:30 PM90 °FPassing clouds.8 mph55%29.83 "Hg2 mi
4:00 PM90 °FPassing clouds.9 mph55%29.83 "Hg2 mi
3:30 PM91 °FPassing clouds.10 mph52%29.83 "Hg2 mi
3:00 PM91 °FPassing clouds.8 mph56%29.83 "Hg2 mi
2:30 PM91 °FPassing clouds.9 mph52%29.83 "Hg2 mi
2:00 PM91 °FPassing clouds.7 mph52%29.83 "Hg1 mi
1:30 PM91 °FPassing clouds.10 mph56%29.86 "Hg1 mi
1:00 PM91 °FClear.9 mph56%29.86 "Hg2 mi
12:30 PM93 °FClear.3 mph41%29.89 "Hg2 mi
12:00 PM91 °FClear.6 mph41%29.89 "Hg1 mi
11:30 AM91 °FClear.3 mph46%29.89 "Hg1 mi
11:00 AM90 °FClear.5 mph49%29.92 "Hg1 mi
10:30 AM88 °FClear.5 mph55%29.92 "Hg1 mi
10:00 AM88 °FHaze.3 mph59%29.92 "Hg1 mi
9:30 AM86 °FHaze.6 mph62%29.92 "Hg1 mi
8:30 AM82 °FHaze.6 mph70%29.92 "Hg1 mi
8:00 AM82 °FHaze.6 mph74%29.89 "Hg1 mi
7:30 AM82 °FScattered clouds.No wind74%29.89 "Hg1 mi
7:00 AM82 °FPassing clouds.No wind74%29.86 "Hg1 mi
6:30 AM82 °FPassing clouds.No wind74%29.86 "Hg1 mi
6:00 AM82 °FPassing clouds.5 mph74%29.86 "Hg1 mi
5:00 AM82 °FPassing clouds.No wind74%29.86 "Hg1 mi
4:30 AM82 °FPassing clouds.No wind74%29.86 "Hg1 mi
4:00 AM82 °FPassing clouds.No wind79%29.86 "Hg1 mi
3:30 AM84 °FPassing clouds.5 mph70%29.86 "Hg1 mi
3:00 AM84 °FPassing clouds.7 mph70%29.86 "Hg1 mi
2:00 AM84 °FPassing clouds.3 mph70%29.86 "Hg1 mi
1:30 AM84 °FPassing clouds.5 mph70%29.89 "Hg1 mi
1:00 AM84 °FPassing clouds.No wind70%29.89 "Hg2 mi
12:30 AM86 °FPassing clouds.No wind62%29.89 "Hg2 mi
12:00 AM86 °FPassing clouds.No wind59%29.89 "Hg2 mi
11:30 PM
Wed, Nov 25
86 °FPassing clouds.No wind62%29.92 "Hg2 mi
11:00 PM86 °FPassing clouds.No wind62%29.92 "Hg2 mi
10:30 PM88 °FPassing clouds.7 mph62%29.92 "Hg2 mi
10:00 PM86 °FPassing clouds.5 mph66%29.92 "Hg2 mi
9:30 PM86 °FPassing clouds.6 mph66%29.92 "Hg2 mi
9:00 PM86 °FPassing clouds.6 mph66%29.92 "Hg2 mi
8:30 PM86 °FPassing clouds.5 mph70%29.92 "Hg2 mi
8:00 PM90 °FPassing clouds.8 mph59%29.89 "Hg2 mi
Weather by CustomWeather, © 2015

See weather overviewHow to use our weather pages